CSN954 ZSHC-HECA

Flight info

Callsign CSN954
Flight time N/A
Altitude 30100
Route NIVIK W135 DOGVI W545 VEMEX W163 HFE B208 NOMAX/K0913S0980 B208 LAXAG W28 LAGEB W66 NUKTI B215 FKG/K0904S1040 A368 SARIN/K0900F340 N161 RELGE/K0893F360 N161 GASBI/N0484F360 N161 BEKIR L850 ADEKI N644 LAGAS N61 NOLGA UN61 TBN UW706 SIV UT284 EVKIT/N0488F370 UB545 VESAR/N0486F360 DCT ODELO DCT STEPA/N0486F370 N71 LAKTO N307 MELDO A16 CVO
Aircraft B77W/H-SDE1E2E3FGHIJ2J3J4J5M1RWXY/LB1D1

Departure

Time 2026-05-04 14:57
Airport Hangzhou Xiaoshan International Airport (ZSHC)

Arrival

Time N/A
Airport Cairo International Airport (HECA)
Time Latitude Longitude Altitude Speed Heading
2026-05-04 14:14 30.23716 120.41922 35 ft 0 kts 92°
2026-05-04 14:32 30.23716 120.41920 35 ft 2 kts 92°
2026-05-04 14:32 30.23717 120.41902 35 ft 2 kts 92°
2026-05-04 14:33 30.23717 120.41885 35 ft 2 kts 92°
2026-05-04 14:33 30.23718 120.41868 35 ft 2 kts 92°
2026-05-04 14:33 30.23719 120.41850 35 ft 2 kts 92°
2026-05-04 14:33 30.23719 120.41833 35 ft 2 kts 94°
2026-05-04 14:34 30.23723 120.41816 35 ft 2 kts 122°
2026-05-04 14:34 30.23733 120.41803 35 ft 2 kts 146°
2026-05-04 14:34 30.23746 120.41795 35 ft 2 kts 156°
2026-05-04 14:34 30.23760 120.41788 35 ft 2 kts 154°
2026-05-04 14:35 30.23774 120.41779 35 ft 2 kts 152°
2026-05-04 14:35 30.23787 120.41772 35 ft 2 kts 153°
2026-05-04 14:35 30.23801 120.41765 35 ft 2 kts 171°
2026-05-04 14:35 30.23816 120.41765 35 ft 2 kts 188°
2026-05-04 14:36 30.23831 120.41769 35 ft 2 kts 204°
2026-05-04 14:36 30.23844 120.41778 35 ft 2 kts 219°
2026-05-04 14:36 30.23855 120.41791 35 ft 2 kts 236°
2026-05-04 14:36 30.23862 120.41806 35 ft 2 kts 245°
2026-05-04 14:37 30.23869 120.41821 35 ft 2 kts 244°
2026-05-04 14:37 30.23875 120.41837 35 ft 2 kts 242°
2026-05-04 14:37 30.23882 120.41851 35 ft 0 kts 242°
2026-05-04 14:37 30.23882 120.41852 35 ft 0 kts 242°
2026-05-04 14:40 30.23869 120.41824 35 ft 5 kts 242°
2026-05-04 14:40 30.23866 120.41785 35 ft 4 kts 288°
2026-05-04 14:40 30.23888 120.41756 35 ft 5 kts 329°
2026-05-04 14:40 30.23930 120.41756 35 ft 6 kts 32°
2026-05-04 14:41 30.23961 120.41807 35 ft 8 kts 63°
2026-05-04 14:41 30.23992 120.41876 35 ft 10 kts 63°
2026-05-04 14:41 30.24066 120.42046 35 ft 12 kts 63°
2026-05-04 14:42 30.24155 120.42246 35 ft 14 kts 63°
2026-05-04 14:42 30.24204 120.42357 35 ft 15 kts 63°
2026-05-04 14:42 30.24252 120.42465 35 ft 13 kts 63°
2026-05-04 14:43 30.24292 120.42555 35 ft 11 kts 63°
2026-05-04 14:43 30.24328 120.42637 35 ft 10 kts 63°
2026-05-04 14:43 30.24361 120.42712 35 ft 10 kts 63°
2026-05-04 14:43 30.24395 120.42789 35 ft 10 kts 63°
2026-05-04 14:44 30.24431 120.42869 35 ft 11 kts 63°
2026-05-04 14:44 30.24468 120.42954 35 ft 11 kts 63°
2026-05-04 14:44 30.24507 120.43040 35 ft 12 kts 63°
2026-05-04 14:44 30.24546 120.43130 35 ft 12 kts 63°
2026-05-04 14:45 30.24585 120.43218 35 ft 9 kts 63°
2026-05-04 14:45 30.24623 120.43285 35 ft 8 kts 26°
2026-05-04 14:45 30.24677 120.43266 35 ft 8 kts 351°
2026-05-04 14:45 30.24722 120.43302 35 ft 8 kts 60°
2026-05-04 14:46 30.24752 120.43369 35 ft 9 kts 62°
2026-05-04 14:46 30.24783 120.43439 35 ft 10 kts 63°
2026-05-04 14:46 30.24817 120.43515 35 ft 10 kts 63°
2026-05-04 14:46 30.24852 120.43594 35 ft 11 kts 63°
2026-05-04 14:47 30.24888 120.43677 35 ft 11 kts 63°
2026-05-04 14:47 30.24926 120.43762 35 ft 11 kts 63°
2026-05-04 14:47 30.24965 120.43850 35 ft 12 kts 63°
2026-05-04 14:47 30.24999 120.43928 35 ft 9 kts 63°
2026-05-04 14:48 30.25028 120.43993 35 ft 7 kts 63°
2026-05-04 14:48 30.25050 120.44041 35 ft 3 kts 44°
2026-05-04 14:48 30.25077 120.44041 35 ft 3 kts 333°
2026-05-04 14:48 30.25085 120.44036 35 ft 0 kts 333°
2026-05-04 14:54 30.25085 120.44035 35 ft 0 kts 333°
2026-05-04 14:54 30.25097 120.44029 35 ft 3 kts 333°
2026-05-04 14:55 30.25133 120.44008 35 ft 7 kts 333°
2026-05-04 14:55 30.25181 120.43972 35 ft 8 kts 309°
2026-05-04 14:55 30.25182 120.43905 35 ft 9 kts 246°
2026-05-04 14:55 30.25169 120.43874 35 ft 0 kts 242°
2026-05-04 14:56 30.25155 120.43844 35 ft 17 kts 243°
2026-05-04 14:57 30.24992 120.43473 35 ft 85 kts 243°
2026-05-04 14:57 30.24610 120.42612 35 ft 148 kts 242°
2026-05-04 14:57 30.24056 120.41360 58 ft 200 kts 242°
2026-05-04 14:57 30.23417 120.39909 655 ft 208 kts 241°
2026-05-04 14:58 30.22742 120.38392 1412 ft 216 kts 240°
2026-05-04 14:58 30.22038 120.36820 1845 ft 226 kts 240°
2026-05-04 14:58 30.21302 120.35169 2181 ft 240 kts 241°
2026-05-04 14:58 30.20499 120.33362 2566 ft 254 kts 241°
2026-05-04 14:59 30.19690 120.31544 3209 ft 257 kts 241°
2026-05-04 14:59 30.18874 120.29708 3836 ft 260 kts 242°
2026-05-04 14:59 30.17188 120.25922 5071 ft 266 kts 243°
2026-05-04 15:00 30.16321 120.23977 5609 ft 272 kts 244°
2026-05-04 15:00 30.15677 120.21887 6147 ft 276 kts 265°
2026-05-04 15:00 30.15831 120.19698 6690 ft 275 kts 290°
2026-05-04 15:01 30.18297 120.16450 7804 ft 274 kts 330°
2026-05-04 15:01 30.20007 120.15349 7965 ft 276 kts 332°
2026-05-04 15:01 30.21734 120.14275 7980 ft 275 kts 332°
2026-05-04 15:01 30.23403 120.13230 7982 ft 274 kts 332°
2026-05-04 15:02 30.25096 120.12165 7978 ft 273 kts 331°
2026-05-04 15:02 30.26786 120.11100 7979 ft 274 kts 331°
2026-05-04 15:02 30.28480 120.10031 7968 ft 272 kts 331°
2026-05-04 15:02 30.30161 120.08969 7983 ft 274 kts 331°
2026-05-04 15:03 30.31862 120.07895 7991 ft 273 kts 331°
2026-05-04 15:03 30.33559 120.06822 7986 ft 274 kts 331°
2026-05-04 15:03 30.35235 120.05763 7987 ft 274 kts 331°
2026-05-04 15:03 30.36940 120.04684 7988 ft 274 kts 331°
2026-05-04 15:04 30.38643 120.03606 7995 ft 273 kts 331°
2026-05-04 15:04 30.40327 120.02541 7989 ft 274 kts 331°
2026-05-04 15:04 30.42025 120.01466 7983 ft 273 kts 331°
2026-05-04 15:04 30.43695 120.00407 7988 ft 273 kts 331°
2026-05-04 15:05 30.45427 119.99310 8166 ft 281 kts 331°
2026-05-04 15:05 30.47126 119.98235 8948 ft 275 kts 331°
2026-05-04 15:05 30.48811 119.97169 9571 ft 275 kts 331°
2026-05-04 15:05 30.50530 119.96080 10082 ft 279 kts 331°
2026-05-04 15:06 30.52264 119.94981 10589 ft 283 kts 331°
2026-05-04 15:06 30.54056 119.93845 10839 ft 298 kts 331°
2026-05-04 15:06 30.55964 119.92634 11043 ft 314 kts 331°
2026-05-04 15:07 30.60048 119.90069 11515 ft 345 kts 334°
2026-05-04 15:07 30.62376 119.89055 11785 ft 361 kts 344°
2026-05-04 15:07 30.64915 119.88525 12123 ft 374 kts 354°
2026-05-04 15:07 30.67561 119.88568 12653 ft 382 kts
2026-05-04 15:08 30.70266 119.88887 13255 ft 385 kts 359°
2026-05-04 15:08 30.72939 119.88695 13825 ft 387 kts 349°
2026-05-04 15:08 30.75620 119.87934 14434 ft 388 kts 340°
2026-05-04 15:08 30.78146 119.86821 15087 ft 389 kts 334°
2026-05-04 15:09 30.80627 119.85455 15712 ft 390 kts 330°
2026-05-04 15:09 30.83055 119.83926 16263 ft 394 kts 328°
2026-05-04 15:09 30.85442 119.82271 16828 ft 397 kts 326°
2026-05-04 15:10 30.90122 119.78695 17952 ft 402 kts 323°
2026-05-04 15:10 30.92486 119.76790 18503 ft 405 kts 322°
2026-05-04 15:10 30.97154 119.72913 19617 ft 410 kts 321°
2026-05-04 15:11 30.99488 119.70940 19768 ft 412 kts 321°
2026-05-04 15:11 31.01846 119.68935 19776 ft 410 kts 321°
2026-05-04 15:11 31.04192 119.66930 19777 ft 410 kts 321°
2026-05-04 15:11 31.06500 119.64950 19779 ft 410 kts 321°
2026-05-04 15:12 31.08822 119.62952 19777 ft 410 kts 321°
2026-05-04 15:12 31.11131 119.60962 19780 ft 410 kts 321°
2026-05-04 15:12 31.13447 119.58963 19778 ft 410 kts 321°
2026-05-04 15:12 31.15779 119.56946 19835 ft 418 kts 321°
2026-05-04 15:13 31.18073 119.54960 20399 ft 418 kts 321°
2026-05-04 15:13 31.20421 119.52927 21132 ft 415 kts 320°
2026-05-04 15:13 31.22783 119.50878 21678 ft 417 kts 320°
2026-05-04 15:13 31.25139 119.48833 22057 ft 422 kts 321°
2026-05-04 15:14 31.27537 119.46750 22513 ft 425 kts 321°
2026-05-04 15:14 31.29944 119.44658 23018 ft 427 kts 320°
2026-05-04 15:14 31.32344 119.42571 23483 ft 429 kts 320°
2026-05-04 15:14 31.34793 119.40440 23899 ft 432 kts 320°
2026-05-04 15:15 31.37249 119.38300 24340 ft 435 kts 320°
2026-05-04 15:15 31.39720 119.36146 24784 ft 437 kts 320°
2026-05-04 15:15 31.42161 119.34018 25201 ft 439 kts 320°
2026-05-04 15:16 31.47036 119.29762 26064 ft 443 kts 319°
2026-05-04 15:16 31.49557 119.27559 26472 ft 445 kts 319°
2026-05-04 15:16 31.54618 119.23132 27213 ft 451 kts 319°
2026-05-04 15:17 31.57180 119.20887 27602 ft 453 kts 319°
2026-05-04 15:17 31.62253 119.16386 28373 ft 457 kts 319°
2026-05-04 15:17 31.64827 119.14099 28727 ft 459 kts 318°
2026-05-04 15:18 31.67316 119.11655 29014 ft 460 kts 313°
2026-05-04 15:18 31.69555 119.08929 29319 ft 460 kts 311°
2026-05-04 15:18 31.71928 119.06397 29841 ft 461 kts 315°
2026-05-04 15:19 31.76922 119.01450 30137 ft 460 kts 314°
2026-05-04 15:19 31.82586 118.92508 30137 ft 452 kts 291°
2026-05-04 15:20 31.84342 118.85379 30133 ft 446 kts 277°
2026-05-04 15:20 31.84332 118.78047 30132 ft 447 kts 263°
2026-05-04 15:21 31.83603 118.70741 30136 ft 446 kts 264°
2026-05-04 15:22 31.82504 118.59736 30134 ft 447 kts 264°
2026-05-04 15:22 31.81396 118.48735 30131 ft 446 kts 264°
2026-05-04 15:23 31.80656 118.41433 30131 ft 447 kts 264°
2026-05-04 15:23 31.79911 118.34128 30137 ft 444 kts 263°
2026-05-04 15:24 31.79290 118.19681 30137 ft 448 kts 269°
2026-05-04 15:25 31.79150 118.12351 30141 ft 445 kts 268°
2026-05-04 15:26 31.78956 118.01317 30142 ft 446 kts 269°
2026-05-04 15:26 31.78774 117.90268 30137 ft 448 kts 269°
2026-05-04 15:27 31.78579 117.79200 30134 ft 448 kts 269°
2026-05-04 15:28 31.78373 117.68075 30130 ft 449 kts 269°
2026-05-04 15:29 31.78128 117.56948 30130 ft 450 kts 269°
2026-05-04 15:30 31.78905 117.31057 30127 ft 452 kts 287°
2026-05-04 15:31 31.81720 117.24470 30137 ft 456 kts 302°
2026-05-04 15:31 31.83687 117.21528 30142 ft 461 kts 307°
2026-05-04 15:32 31.94241 117.06970 30135 ft 461 kts 308°
2026-05-04 15:34 32.04745 116.92415 30135 ft 462 kts 308°
2026-05-04 15:34 32.11047 116.83668 30128 ft 465 kts 308°
2026-05-04 15:35 32.17336 116.74918 30127 ft 464 kts 308°
2026-05-04 15:36 32.23485 116.66168 30116 ft 464 kts 308°
2026-05-04 15:36 32.27620 116.60201 30114 ft 464 kts 308°
2026-05-04 15:37 32.31753 116.54233 30110 ft 465 kts 308°
2026-05-04 15:37 32.35906 116.48229 30107 ft 467 kts 308°
2026-05-04 15:38 32.40052 116.42228 30102 ft 465 kts 308°
2026-05-04 15:38 32.44192 116.36226 30100 ft 467 kts 308°
2026-05-04 15:39 32.48342 116.30202 30098 ft 465 kts 307°
2026-05-04 15:40 32.54564 116.21149 30094 ft 468 kts 308°
2026-05-04 15:40 32.58726 116.15155 30094 ft 468 kts 309°
2026-05-04 15:41 32.62993 116.09168 30097 ft 468 kts 309°
2026-05-04 15:41 32.67233 116.03204 30102 ft 468 kts 309°
2026-05-04 15:42 32.71501 115.97184 30349 ft 473 kts 309°
2026-05-04 15:42 32.73636 115.94170 30903 ft 468 kts 308°
2026-05-04 15:42 32.75716 115.91228 31528 ft 460 kts 308°
2026-05-04 15:42 32.77792 115.88291 31992 ft 457 kts 308°
2026-05-04 15:43 32.79847 115.85379 32086 ft 460 kts 308°
2026-05-04 15:43 32.83979 115.79517 32098 ft 458 kts 308°
2026-05-04 15:44 32.88121 115.73633 32101 ft 459 kts 308°
2026-05-04 15:44 32.92350 115.67811 32090 ft 459 kts 309°
2026-05-04 15:45 32.96600 115.62022 32089 ft 460 kts 310°
2026-05-04 15:45 33.00849 115.56215 32088 ft 459 kts 310°
2026-05-04 15:46 33.05071 115.50433 32090 ft 460 kts 310°
2026-05-04 15:46 33.09307 115.44617 32088 ft 458 kts 310°
2026-05-04 15:47 33.13540 115.38796 32086 ft 460 kts 310°
2026-05-04 15:47 33.17545 115.33279 32089 ft 458 kts 309°
2026-05-04 15:48 33.21775 115.27444 32091 ft 459 kts 309°
2026-05-04 15:48 33.28115 115.18677 32085 ft 459 kts 309°
2026-05-04 15:49 33.32289 115.12895 32082 ft 461 kts 309°
2026-05-04 15:49 33.36503 115.07049 32080 ft 460 kts 309°
2026-05-04 15:50 33.40741 115.01158 32080 ft 461 kts 310°
2026-05-04 15:50 33.44921 114.95339 32080 ft 460 kts 310°
2026-05-04 15:51 33.49163 114.89424 32075 ft 460 kts 310°
2026-05-04 15:51 33.53360 114.83562 32070 ft 460 kts 310°
2026-05-04 15:52 33.57561 114.77686 32070 ft 459 kts 310°
2026-05-04 15:52 33.61808 114.71821 32066 ft 460 kts 311°
2026-05-04 15:53 33.66137 114.66050 32062 ft 460 kts 315°
2026-05-04 15:53 33.71112 114.61063 32063 ft 462 kts 321°
2026-05-04 15:54 33.76212 114.56193 32059 ft 462 kts 321°
2026-05-04 15:54 33.81268 114.51352 32064 ft 460 kts 321°
2026-05-04 15:55 33.86377 114.46516 32059 ft 462 kts 321°
2026-05-04 15:55 33.91483 114.41718 32065 ft 460 kts 321°
2026-05-04 15:56 33.96587 114.36912 32061 ft 462 kts 321°
2026-05-04 15:56 34.01666 114.32117 32060 ft 460 kts 321°
2026-05-04 15:57 34.06403 114.27638 32056 ft 460 kts 321°
2026-05-04 15:58 34.11604 114.22712 32058 ft 460 kts 321°
2026-05-04 15:58 34.16708 114.17869 32060 ft 460 kts 321°
2026-05-04 15:59 34.21775 114.13054 32058 ft 459 kts 321°
2026-05-04 15:59 34.26867 114.08208 32053 ft 459 kts 321°
2026-05-04 16:00 34.31967 114.03346 32054 ft 458 kts 321°
2026-05-04 16:00 34.37070 113.98473 32050 ft 457 kts 321°
2026-05-04 16:01 34.42117 113.93646 32058 ft 459 kts 321°
2026-05-04 16:01 34.47208 113.88769 32056 ft 456 kts 321°
2026-05-04 16:02 34.52578 113.84486 32050 ft 457 kts 334°
2026-05-04 16:03 34.61897 113.80978 32049 ft 459 kts 343°
2026-05-04 16:03 34.68145 113.78932 32037 ft 458 kts 343°
2026-05-04 16:04 34.74445 113.76857 32030 ft 459 kts 343°
2026-05-04 16:04 34.83798 113.73763 32022 ft 457 kts 343°
2026-05-04 16:05 34.89969 113.71478 32028 ft 454 kts 339°
2026-05-04 16:06 34.99140 113.67346 32009 ft 455 kts 339°
2026-05-04 16:07 35.11256 113.61953 32016 ft 455 kts 339°
2026-05-04 16:08 35.23146 113.56676 32028 ft 455 kts 339°
2026-05-04 16:09 35.38205 113.49981 32087 ft 456 kts 339°
2026-05-04 16:10 35.50368 113.44575 32150 ft 456 kts 340°
2026-05-04 16:11 35.62455 113.39216 32162 ft 455 kts 340°